Location: G�rlitz
(51.1670°N, 15.0000°E)
Time: 13:24:11
(UTC+02:00)

PCSat - Visible Passes

Search period start: 19 April 2026 00:00
Search period end: 29 April 2026 00:00
Orbit: 781 x 790 km, 67.1° (Epoch: 19 April)

Date Brightness Start Highest point End Pass type
(mag) Time Alt. Az. Time Alt. Az. Time Alt. Az.
19 Apr 11.1 00:50:29 10° NW 00:53:48 25° W 00:53:48 25° W visible
19 Apr 11.5 20:51:10 10° NNW 20:55:03 19° NNE 20:58:55 10° ENE visible
19 Apr 10.1 22:34:18 10° NNW 22:39:35 51° NE 22:41:39 33° E visible
20 Apr 10.5 00:17:51 10° NW 00:22:15 35° WSW 00:22:15 35° WSW visible
20 Apr 10.4 22:01:57 10° NNW 22:07:05 41° NE 22:10:07 22° E visible
20 Apr 10.0 23:45:19 10° NW 23:50:30 47° WSW 23:50:44 47° SW visible
21 Apr 10.7 21:29:38 10° NNW 21:34:33 34° NE 21:38:37 14° E visible
21 Apr 9.7 23:12:51 10° NW 23:18:13 63° WSW 23:19:14 52° S visible
22 Apr 11.9 00:58:44 10° W 00:59:50 11° W 00:59:50 11° W visible
22 Apr 11.0 20:57:17 10° NNW 21:01:57 28° NNE 21:06:36 10° E visible
22 Apr 9.5 22:40:26 10° NW 22:45:52 83° SW 22:47:45 42° SSE visible
23 Apr 11.5 00:25:08 10° WNW 00:28:22 16° WSW 00:28:22 16° WSW visible
23 Apr 9.6 22:08:03 10° NW 22:13:29 77° NE 22:16:19 29° SE visible
23 Apr 11.1 23:52:10 10° WNW 23:56:14 22° WSW 23:56:56 21° WSW visible
24 Apr 9.8 21:35:42 10° NNW 21:41:04 60° NE 21:44:54 19° ESE visible
24 Apr 10.8 23:19:26 10° NW 23:24:03 29° WSW 23:25:31 26° SW visible
25 Apr 10.1 21:03:21 10° NNW 21:08:36 47° NE 21:13:32 11° ESE visible
25 Apr 10.5 22:46:50 10° NW 22:51:51 39° WSW 22:54:09 26° SSW visible
26 Apr 10.1 22:14:19 10° NW 22:19:35 52° WSW 22:22:49 22° S visible
27 Apr 9.7 21:41:53 10° NW 21:47:17 70° WSW 21:51:31 16° SSE visible
27 Apr 11.8 23:27:14 10° WNW 23:29:36 13° WSW 23:31:57 10° SW visible
28 Apr 9.6 21:09:28 10° NW 21:14:56 90° SSW 21:20:16 10° SE visible
28 Apr 11.6 22:53:57 10° WNW 22:57:30 18° WSW 23:00:54 10° SSW visible
